Simultaneous Nadir Overpasses (SNOs) Predictions

Prediction of SNOs between LANDSAT-8 and METOP-B Satellite Orbit:

Table of predicted SNOs for the next 14.0 days since TLE Epoch: 6/10/2023
Index Date (LANDSAT-8) Time (LANDSAT-8) Lat,Lon (LANDSAT-8) SZA (LANDSAT-8 ) Date (METOP-B) Time (METOP-B) Lat,Lon (METOP-B) SZA (METOP-B ) Distance(km) Time Diff (sec)
1 06/10/2023 09:09:40 -81.20, -96.28 119.51 06/10/2023 09:08:40 -81.19, -96.20 119.54 1.28 60
2 06/10/2023 09:59:06 81.20, 71.49 60.51 06/10/2023 09:59:20 81.20, 71.36 60.50 2.19 14
3 06/13/2023 04:43:56 -81.19, -29.95 119.73 06/13/2023 04:43:01 -81.19, -29.89 119.75 0.92 55
4 06/13/2023 05:33:22 81.20, 137.79 60.28 06/13/2023 05:33:41 81.20, 137.64 60.28 2.56 19
5 06/16/2023 00:18:12 -81.20, 36.58 119.87 06/16/2023 00:17:22 -81.20, 36.73 119.88 2.49 50
6 06/16/2023 01:07:38 81.20,-155.71 60.14 06/16/2023 01:08:02 81.20,-155.77 60.15 1.09 24
7 06/18/2023 19:52:28 -81.19, 102.93 119.98 06/18/2023 19:51:44 -81.19, 102.89 120.00 0.74 44
8 06/18/2023 20:41:53 81.22, -89.01 60.08 06/18/2023 20:42:22 81.22, -88.87 60.11 2.41 29
9 06/21/2023 15:26:42 -81.20, 169.48 120.01 06/21/2023 15:26:04 -81.19, 169.36 120.04 2.11 38



Historial Predications of SNOs between LANDSAT-8 and METOP-B
